Location: Newark
(28.5667°N, 77.2000°E)
Time: 15:46:32
(UTC+00:00)

OTV 5 (USA 277) - Pass Details

Date: 26 August 2019
Orbit: 310 x 324 km, 54.5° (Epoch: 08 October)

Event Time Altitude Azimuth Distance (km) Brightness Sun altitude
Rises 13:46:45 0° 243° (WSW) 2,026 ? -6.6°
Reaches altitude 10° 13:48:57 10° 260° (W) 1,198 ? -7.0°
Maximum altitude 13:51:06 22° 314° (NW) 755 ? -7.5°
Drops below altitude 10° 13:53:15 10° 8° (N) 1,199 ? -7.9°
Sets 13:55:27 0° 25° (NNE) 2,026 ? -8.4°
